Dewpoint
72 69 68 74 75 74 72 68 55 57 54 50 51 53 52 58 59 54 54 56 54 58 61 55 55 56 57 55 56 59 59 50 52 45 43 52 70 70 71 71 72 72 73 74 74 75 76 75 76 76 76 76 76 76 76 76 75 76 76 76 76 76 76 76 76 76 76 76 76 76 76 76 76 76 75 75 75 75 75 75 75 75 74 75 75 74 75 75 75 75 75 75 76 75 75 75 76
71 64 67 74 73 71 64 66 56 53 53 51 52 55 53 57 54 52 53 55 56 57 57 56 59 60 61 60 59 56 57 63 63 59 66 69 70 70 71 71 72 72 73 74 75 76 76 76 76 76 76 76 76 76 76 76 76 76 76 76 76 76 76 76 76 76 76 76 76 76 76 76 75 75 75 75 75 75 75 75 75 75 74 74 75 75 75 76 75 75 76 76 75 75 75 75 75
67 66 69 74 73 70 67 66 52 51 49 48 50 54 58 53 53 55 57 58 59 59 59 60 59 60 59 57 54 58 53 63 64 66 67 69 67 68 71 72 72 73 74 75 75 75 76 75 76 76 75 75 76 76 75 76 76 76 76 76 76 76 76 76 76 75 76 75 75 75 76 76 75 75 75 75 75 74 74 75 75 75 75 75 75 75 75 75 75 75 75 75 74 75 75 75 75
65 70 69 71 66 69 61 59 54 51 49 49 50 54 57 53 54 57 59 59 58 57 57 56 58 60 59 57 59 61 61 62 65 66 66 67 65 69 71 72 74 74 74 75 75 75 75 76 76 75 76 76 76 76 76 76 76 76 76 76 76 75 75 75 75 75 75 75 76 75 76 76 76 75 75 75 75 75 76 75 75 75 75 75 75 74 75 75 75 75 75 75 75 75 75 75 76
66 71 69 71 65 60 60 57 55 52 50 51 50 54 58 55 55 57 58 58 55 55 56 58 58 60 62 59 60 57 59 64 65 66 66 68 70 71 72 73 73 73 74 74 75 75 76 76 75 75 76 76 76 76 76 76 76 76 76 76 76 75 76 76 75 75 75 75 75 75 75 76 75 75 75 75 75 75 75 75 75 75 74 74 74 74 75 75 75 75 75 75 75 75 75 75 75
71 74 75 71 64 66 61 54 53 53 54 56 53 53 57 59 57 58 58 58 57 55 56 56 56 57 58 60 62 62 62 59 64 65 67 68 70 71 72 73 73 73 74 74 74 75 75 76 75 75 76 76 76 76 76 76 76 76 76 75 75 75 76 76 76 75 75 75 75 75 75 76 75 75 75 75 75 75 75 74 75 75 75 75 74 75 75 74 74 74 74 74 75 75 74 75 74
68 70 69 69 66 67 56 54 55 55 58 59 55 56 58 59 59 56 55 55 57 59 60 58 58 58 58 60 61 63 65 65 64 65 68 69 70 72 72 72 72 73 74 74 74 75 75 76 76 76 76 76 76 76 76 76 76 76 76 75 75 75 75 75 76 75 75 75 75 75 76 75 75 75 75 75 75 75 75 74 73 75 75 75 75 75 75 74 74 75 75 75 75 75 75 75 75
73 68 67 60 58 59 56 55 56 58 57 62 62 62 60 59 60 55 54 55 55 57 58 57 58 59 59 62 60 64 65 66 67 68 69 69 71 71 71 72 72 73 73 74 74 75 77 76 76 76 76 75 76 76 76 76 76 75 75 75 76 75 76 75 75 75 75 75 75 75 75 75 75 75 75 75 74 75 74 74 73 74 74 75 75 75 74 74 74 74 74 75 75 76 75 75 75
70 69 68 59 56 57 55 55 57 61 62 63 62 65 66 63 61 56 57 57 57 59 57 58 57 54 59 60 61 64 66 67 68 70 69 69 70 71 71 72 72 73 73 74 75 75 76 76 76 76 75 76 75 76 75 75 75 75 75 75 76 75 75 75 75 75 75 75 75 75 75 75 75 75 75 75 75 75 75 74 74 73 74 75 74 74 74 74 74 74 75 75 76 76 75 75 74
69 67 60 58 58 54 53 55 55 58 61 64 62 63 64 64 60 58 55 56 57 58 57 60 59 58 60 60 62 64 66 68 68 68 69 69 70 69 71 72 72 73 73 74 75 76 76 76 76 75 75 75 75 75 75 75 75 75 75 75 75 76 75 74 75 75 75 75 75 75 75 75 75 75 75 74 75 74 74 75 73 74 74 74 74 74 74 74 75 75 75 75 76 75 75 74 74
61 66 64 57 54 53 52 54 57 60 62 64 63 66 66 66 60 57 57 57 59 58 59 60 59 59 60 61 62 66 67 68 67 67 68 68 68 70 71 72 73 73 74 75 76 75 75 75 75 75 75 75 75 75 75 75 75 75 75 75 74 75 74 73 74 74 74 74 75 75 75 75 74 75 75 74 74 74 74 74 74 74 75 75 74 74 75 75 74 75 75 76 75 75 74 75 74
61 62 60 54 53 53 56 55 57 59 63 63 60 65 65 65 58 56 57 56 58 58 58 59 59 60 60 61 62 66 66 66 67 67 67 67 68 70 71 72 73 74 75 75 76 75 75 75 75 75 75 75 75 75 74 75 75 75 75 75 74 75 74 73 73 74 74 74 74 74 75 75 74 75 75 75 74 74 75 74 74 75 75 75 75 74 74 74 75 75 75 75 75 74 74 75 74
62 61 58 56 55 56 58 56 57 60 59 59 60 66 67 60 57 57 58 58 58 57 58 61 60 61 59 61 64 65 65 66 66 66 66 67 69 70 72 72 73 74 75 75 75 75 75 74 75 75 75 75 75 75 75 75 75 75 75 75 75 74 74 74 74 74 73 74 74 75 75 75 75 74 75 75 74 74 74 74 74 74 74 75 75 75 75 75 75 75 74 74 74 74 74 74 74
62 61 59 54 59 58 57 58 58 56 56 60 65 67 67 61 59 58 57 57 58 58 59 60 60 62 61 62 63 64 65 66 66 66 68 69 70 71 72 72 73 74 74 74 74 74 74 75 75 75 75 75 75 75 75 75 75 75 75 75 75 74 73 74 74 74 74 74 74 74 74 74 75 75 75 75 74 74 74 74 75 75 75 75 75 75 75 75 74 74 74 74 74 73 73 73 73
62 66 59 57 56 57 59 56 57 56 55 63 64 64 64 65 62 59 57 56 58 61 60 60 61 60 58 60 61 63 65 65 66 67 69 69 70 70 71 72 73 73 74 74 74 74 74 74 74 74 75 74 74 74 74 75 74 74 74 74 74 74 73 73 73 73 74 74 74 75 75 74 75 75 75 75 74 74 74 74 74 75 75 75 75 75 75 75 75 75 75 75 75 74 74 74 73
67 64 59 54 53 55 57 58 60 56 55 64 65 66 61 64 67 59 61 61 58 59 60 59 61 60 60 60 62 63 65 65 66 68 68 69 70 71 72 72 72 73 73 73 73 73 73 73 73 74 74 74 74 74 74 74 75 74 74 74 74 73 73 74 73 73 74 74 74 74 74 74 74 74 75 75 75 75 75 74 74 74 75 75 75 75 75 75 74 75 75 75 75 75 74 75 74
69 62 55 54 53 56 58 59 59 56 59 63 65 63 57 60 66 64 68 61 58 58 61 59 57 61 61 61 63 64 65 66 68 68 69 69 70 70 71 71 72 72 72 73 73 73 73 73 73 73 73 73 74 74 74 74 75 74 73 74 73 73 73 73 73 73 73 74 73 74 74 74 73 74 75 74 74 75 75 74 74 74 74 74 75 75 74 74 75 75 75 74 75 75 75 75 75
63 57 55 54 55 56 59 58 60 62 59 63 63 64 60 59 63 63 61 60 60 60 59 58 60 60 61 63 64 64 65 66 68 68 68 69 69 69 69 70 71 71 71 72 73 73 73 73 73 73 73 73 73 74 74 75 75 74 74 74 74 73 73 73 73 72 72 72 73 74 73 74 73 73 73 75 75 74 74 74 75 74 74 74 73 74 74 75 75 75 75 75 75 75 74 73 74
60 58 56 54 57 57 61 59 62 61 62 64 64 63 63 62 63 63 57 58 58 57 58 58 59 60 61 62 63 64 64 67 67 68 68 68 68 68 69 69 70 70 71 72 72 73 73 73 73 73 73 73 73 74 74 74 73 73 74 74 74 73 73 72 73 73 72 72 72 72 74 73 73 74 74 75 76 75 75 75 75 74 74 73 73 74 75 75 75 76 76 76 76 76 74 72 73
62 57 54 55 58 59 63 64 62 65 65 63 62 64 62 63 65 66 58 56 58 56 56 58 59 59 60 62 63 63 65 67 67 68 68 68 68 68 68 69 69 70 71 71 72 73 73 73 73 73 73 73 73 73 74 73 73 73 73 73 73 73 73 73 72 72 71 71 72 72 72 72 73 73 75 75 75 74 74 74 74 74 74 74 74 77 76 75 75 76 76 75 77 75 74 73 74
61 57 55 56 60 59 64 64 64 66 64 64 63 64 63 66 66 65 59 55 56 57 57 58 58 59 60 62 63 64 66 66 67 67 67 68 68 68 68 69 69 70 71 72 73 73 73 73 73 73 73 73 73 74 73 72 73 72 72 73 73 73 73 73 73 72 72 72 73 73 73 73 73 73 73 73 73 73 73 73 73 73 73 73 76 72 73 73 74 72 72 74 73 74 73 74 74
59 58 63 64 63 60 65 65 66 66 66 64 63 62 62 67 66 64 57 54 54 57 59 59 60 60 61 62 63 65 66 66 66 67 67 67 67 67 68 69 70 71 72 71 72 73 73 73 73 73 73 73 73 73 73 74 73 72 72 72 72 72 73 73 73 73 73 73 73 73 73 73 72 72 73 73 73 73 73 72 73 73 73 73 75 72 72 72 72 72 72 72 72 73 73 73 73
58 62 64 63 64 63 65 65 66 66 64 63 63 65 66 65 64 63 63 57 57 60 59 60 60 61 62 63 64 64 65 65 66 66 66 66 67 67 68 69 70 70 71 71 72 72 73 73 73 73 73 73 73 73 73 73 71 71 72 72 72 72 72 72 72 73 73 73 73 74 73 73 72 72 72 72 72 73 72 72 72 72 72 72 74 72 72 72 72 72 72 73 72 73 72 72 73
61 61 63 63 65 64 64 64 65 65 64 63 66 67 63 64 60 63 62 62 62 61 60 60 61 61 62 63 63 64 64 65 65 66 66 66 66 67 68 69 70 71 71 71 72 72 73 73 74 73 74 73 73 74 73 72 72 71 72 74 73 74 73 72 72 72 73 73 74 74 74 73 72 72 72 72 72 72 72 72 72 72 72 72 73 73 72 71 71 72 72 73 73 73 72 72 72
62 62 63 63 64 65 64 64 65 65 65 66 66 64 64 64 63 63 61 63 61 61 60 60 60 60 61 62 62 63 63 64 64 65 66 66 67 67 68 69 70 71 70 71 72 72 72 73 74 74 74 74 74 74 73 72 72 72 73 72 72 74 72 72 72 73 73 73 74 74 74 73 72 72 72 72 72 72 72 72 72 72 72 73 73 72 72 72 71 72 72 73 73 73 73 72 72
63 63 64 64 63 64 65 65 65 65 65 65 64 63 63 64 64 62 62 63 60 59 59 60 60 60 59 60 61 62 62 63 64 64 65 66 67 67 68 69 70 70 70 71 72 72 72 73 73 74 74 74 74 74 73 73 72 72 73 72 73 74 72 72 73 72 72 73 73 73 74 73 72 72 72 72 72 71 71 72 72 72 72 72 72 72 72 72 71 71 72 72 72 72 72 72 73
63 63 63 63 63 63 64 63 64 65 64 65 62 62 63 64 63 57 62 62 60 59 59 59 59 59 59 60 60 61 61 62 63 64 64 65 66 67 67 69 70 70 71 71 71 72 73 72 72 74 74 75 74 73 72 72 73 73 73 73 73 72 72 73 73 73 73 73 73 73 73 73 72 72 72 71 71 71 71 71 71 71 71 72 72 72 73 73 73 73 72 72 72 72 72 71 72
64 64 64 64 65 64 64 64 64 65 63 66 63 62 63 65 64 57 59 60 59 58 58 58 59 58 59 59 60 60 60 61 61 62 63 65 66 67 67 68 69 69 70 70 71 71 72 72 72 73 74 74 73 73 74 73 73 73 73 73 73 72 73 73 73 73 74 73 73 73 72 73 73 72 72 71 71 71 70 70 71 71 71 71 72 72 72 72 73 73 73 73 72 72 73 72 72
64 64 61 63 64 63 65 62 64 66 64 64 62 60 59 60 60 60 59 60 59 57 58 58 58 58 59 59 59 60 60 60 60 61 62 65 66 67 67 68 69 68 69 70 71 71 71 71 71 73 74 74 72 72 73 73 72 73 73 73 73 73 73 73 72 73 73 73 73 73 72 73 73 72 71 72 73 71 71 70 71 72 71 71 72 72 72 72 72 72 72 73 72 73 73 72 71
62 61 61 60 60 59 62 65 65 64 63 64 62 53 56 57 61 61 61 59 58 57 57 57 57 58 59 59 59 60 60 60 59 60 62 64 66 66 67 68 69 68 68 69 70 71 71 71 72 73 73 73 72 72 72 72 72 73 73 73 74 73 73 72 73 72 73 74 73 73 72 72 73 71 71 71 71 71 71 71 71 71 71 71 72 72 72 72 73 73 72 73 75 73 72 72 72
59 59 57 56 56 56 62 63 65 62 66 66 64 52 54 57 61 63 59 59 57 56 57 57 57 58 58 59 59 59 59 60 59 60 63 64 65 66 67 68 68 68 69 69 70 70 71 71 72 72 73 72 72 72 72 72 73 73 73 73 73 73 73 72 72 72 73 73 74 73 72 72 73 71 71 71 71 71 71 71 71 70 71 72 71 74 73 74 73 72 75 73 73 72 73 74 72
59 53 52 54 54 56 60 64 63 60 63 67 59 52 54 57 59 62 59 59 58 56 56 56 57 57 57 58 58 58 58 59 59 60 62 63 64 66 67 68 68 68 68 69 70 70 70 71 73 71 72 71 71 72 71 71 73 73 72 74 73 73 73 72 72 72 73 73 74 73 73 73 73 72 71 71 70 71 71 70 70 71 73 74 74 74 74 73 73 73 74 74 72 72 75 72 72
58 53 52 53 54 56 59 61 65 67 64 65 62 53 57 55 59 60 59 58 57 55 55 56 56 57 56 57 57 57 57 57 58 59 61 63 64 65 66 67 68 68 68 69 69 69 70 70 72 71 70 70 71 71 71 71 72 72 72 73 72 73 72 71 72 72 72 72 73 73 73 74 74 73 72 72 71 70 70 70 71 74 75 73 73 73 73 75 73 72 72 75 73 72 72 72 71
53 51 52 54 54 57 56 60 64 64 64 60 63 57 57 56 59 61 59 58 57 55 55 56 56 56 56 56 56 56 56 56 57 57 60 61 63 64 66 68 67 67 69 69 69 69 69 70 70 70 69 69 70 70 70 71 72 72 71 72 73 72 71 71 71 72 72 72 72 72 73 74 74 73 73 73 72 71 70 71 74 74 74 73 73 73 72 74 73 73 72 73 74 72 72 71 71
52 52 51 52 56 57 56 57 60 63 63 61 61 57 56 56 60 60 58 58 56 54 55 55 54 55 55 55 55 55 55 55 56 56 58 59 61 64 65 67 67 67 69 69 69 70 69 69 70 71 69 69 70 70 71 72 71 71 71 71 71 71 70 71 71 72 72 72 72 72 73 74 75 74 74 75 74 73 71 74 74 74 74 73 73 72 72 74 74 72 72 73 74 73 73 72 72
52 51 50 52 54 55 55 58 63 62 61 60 59 55 56 57 59 60 59 57 54 54 54 54 54 55 55 55 55 54 54 55 56 56 56 58 61 63 65 66 66 67 68 69 70 69 69 69 69 70 69 69 70 70 71 71 70 71 70 70 70 71 70 71 71 71 72 72 73 74 74 74 74 75 75 74 73 73 74 74 74 75 74 73 71 70 71 72 73 73 73 75 74 73 73 72 71
30 50 49 52 53 54 58 60 63 63 60 59 59 57 59 56 58 60 60 58 54 54 53 54 54 54 54 54 54 54 54 54 55 55 56 58 61 63 64 65 66 67 68 68 69 68 69 69 69 69 69 69 70 70 71 70 69 70 69 69 68 69 69 69 70 71 72 72 73 73 73 74 74 75 75 74 73 76 74 74 75 75 75 74 73 71 72 73 75 75 75 74 75 72 71 72 71
21 22 33 42 52 52 55 59 62 63 59 58 60 59 59 59 60 62 64 60 54 54 53 53 53 54 54 53 54 54 54 54 55 55 56 60 61 62 63 64 66 65 66 67 68 68 69 69 69 69 69 69 69 70 71 70 69 69 68 68 68 68 69 69 69 70 71 72 73 73 74 73 74 75 76 75 75 74 74 74 74 74 74 74 74 75 76 78 74 73 73 71 72 73 70 72 71
24 21 35 45 52 57 60 61 62 62 59 57 57 58 58 59 60 60 62 63 63 62 56 53 53 53 54 53 53 54 54 54 54 53 56 59 61 62 62 63 64 65 65 66 67 68 68 68 68 69 68 69 70 71 71 70 69 70 68 68 67 66 68 69 69 71 72 72 72 73 74 73 73 74 75 75 74 74 74 74 74 74 74 75 74 72 72 72 73 73 73 71 72 71 73 74 71
20 17 48 48 54 52 50 59 61 61 57 55 57 56 56 58 60 60 61 62 64 66 66 63 54 53 53 53 54 53 53 53 53 52 56 59 60 61 62 62 63 64 65 64 65 67 68 69 68 68 69 69 70 71 72 70 70 70 68 68 67 66 66 70 70 71 72 71 72 73 73 73 73 73 75 75 74 74 74 74 74 74 74 76 73 73 71 72 73 72 72 74 72 68 69 70 75
20 21 43 48 55 53 50 58 60 59 58 57 57 56 54 56 56 58 61 63 64 64 65 65 65 60 58 57 54 54 53 53 53 50 57 59 60 60 61 62 63 63 63 64 65 66 67 68 68 68 69 69 70 72 72 70 72 71 71 69 68 68 69 69 70 70 71 71 71 72 72 73 74 74 75 75 75 74 74 74 74 73 74 75 74 72 72 73 74 73 72 73 71 69 69 70 72
12 13 26 35 52 52 58 59 58 56 55 56 55 50 51 55 57 57 59 61 61 63 62 62 62 63 64 59 56 54 54 53 53 50 56 59 59 60 61 62 63 63 63 64 65 66 67 67 68 69 69 70 70 71 71 72 72 70 70 68 67 66 66 67 68 69 70 70 71 72 72 73 73 73 74 74 75 75 75 74 73 74 74 75 75 73 73 73 72 73 72 72 71 72 70 68 69
13 13 19 31 50 56 59 58 56 53 51 55 55 49 48 55 55 57 58 59 59 62 62 62 62 62 62 60 57 54 53 52 53 51 56 58 59 60 61 62 63 63 63 64 65 66 67 68 68 69 69 70 70 71 71 73 71 70 69 67 66 65 65 67 68 69 70 70 71 72 72 73 73 73 73 74 75 75 74 74 74 74 74 74 77 74 73 73 73 73 76 73 72 75 70 68 69
11 12 25 26 53 58 58 57 54 53 56 57 56 50 47 49 53 56 58 58 58 59 61 62 62 63 62 61 60 54 52 52 52 51 55 58 59 60 61 62 63 63 64 64 64 66 67 68 69 69 69 70 70 71 72 72 70 70 70 68 68 66 65 66 68 69 70 71 70 72 72 72 73 73 72 73 74 75 74 74 74 74 74 74 76 75 74 73 74 73 77 76 75 74 71 70 69
13 20 37 45 54 56 57 55 51 53 53 50 55 52 47 47 52 56 58 57 57 57 57 60 61 62 63 62 62 57 53 52 52 51 55 58 59 60 61 62 63 64 64 64 64 66 67 68 69 69 69 70 70 71 72 72 71 70 70 69 69 69 67 67 69 71 70 72 70 72 72 72 72 73 73 73 74 74 76 74 74 74 73 73 76 76 75 75 73 72 72 73 72 72 73 74 70
9 24 54 55 56 57 57 53 53 51 46 47 53 53 46 45 55 56 57 56 56 55 56 57 60 61 62 63 63 62 55 53 52 51 55 58 59 60 61 62 63 64 65 65 65 67 67 68 69 69 69 69 70 72 72 72 71 72 70 70 69 70 70 69 69 69 70 71 69 71 72 71 71 72 72 72 74 74 75 75 74 74 74 73 76 75 74 74 73 73 73 73 72 72 73 74 73
27 51 53 53 55 55 54 48 48 45 40 42 52 53 49 42 51 54 55 56 56 55 55 56 58 60 62 63 62 64 59 53 51 51 54 57 59 60 62 63 63 64 65 65 66 67 68 68 68 68 69 69 70 72 72 71 71 71 70 70 69 70 71 70 69 69 69 70 69 70 71 71 71 71 72 72 73 74 74 75 75 75 74 76 76 74 74 73 73 73 74 74 74 72 72 73 73
47 47 44 50 49 50 48 49 46 42 39 42 51 53 51 42 44 55 56 56 56 55 54 55 56 58 60 62 62 63 62 54 52 52 53 57 59 61 62 63 64 64 65 65 66 68 68 68 68 68 69 69 71 72 72 71 71 71 70 70 70 70 71 70 69 69 70 70 69 70 71 71 71 71 71 72 73 74 74 75 76 75 76 74 75 75 74 74 74 74 74 74 73 74 74 75 72
36 32 41 42 42 43 43 45 42 40 39 37 48 53 49 49 47 52 56 56 57 57 55 55 55 57 59 62 62 63 64 57 52 53 53 55 59 60 61 63 64 65 66 66 66 67 68 68 68 68 69 69 71 72 72 72 72 71 71 71 70 71 71 71 70 69 70 70 69 70 70 70 70 71 71 72 72 73 74 74 75 75 75 75 75 74 74 74 74 74 73 75 75 74 74 73 72
28 30 37 30 32 32 32 36 35 34 33 29 51 52 47 48 46 51 51 55 57 58 57 55 55 56 58 61 61 63 64 59 54 54 53 55 58 60 62 63 64 65 66 66 67 68 68 68 68 68 69 70 71 72 72 72 72 72 72 71 71 72 71 71 70 70 71 71 70 70 70 70 70 71 71 72 72 73 74 74 75 75 75 75 75 75 74 74 74 74 74 74 73 73 74 74 73
19 33 30 37 33 27 28 31 32 29 27 34 51 46 42 43 44 54 57 56 55 58 58 57 55 56 58 61 61 62 64 61 57 55 54 54 57 60 61 62 64 64 65 66 67 68 69 68 68 69 69 70 71 72 72 72 72 72 72 72 72 72 72 71 70 70 71 71 71 70 70 70 70 71 72 72 73 73 73 74 74 74 74 75 75 75 76 74 74 75 75 74 74 73 74 74 73
20 24 32 30 29 38 27 31 28 28 35 44 45 42 43 44 52 57 58 58 56 58 59 59 57 57 59 60 60 61 63 64 61 57 55 54 56 59 61 62 63 64 65 66 67 68 68 69 69 69 69 70 71 72 72 72 72 72 72 71 71 73 73 72 72 72 71 72 72 71 71 71 71 72 73 72 72 73 73 73 74 74 74 75 75 75 75 75 74 74 75 74 73 77 74 73 73
22 21 26 35 35 28 31 38 39 27 25 35 42 46 49 51 52 55 58 59 58 58 59 59 59 59 60 60 60 60 62 64 64 59 57 55 55 58 60 61 62 63 64 66 67 68 69 69 69 69 70 70 71 72 72 72 72 72 72 72 71 72 73 72 71 72 71 72 73 72 72 72 72 72 73 74 72 73 73 73 74 74 74 75 75 75 75 75 74 75 75 74 74 74 74 73 72
20 17 18 27 33 31 28 24 28 22 19 19 44 44 45 45 44 56 57 58 58 58 59 59 60 60 60 60 60 59 60 63 65 64 60 58 56 57 59 61 62 63 64 66 67 68 69 69 69 69 70 70 70 71 71 71 72 72 72 72 71 71 72 72 71 72 72 72 73 73 73 73 73 72 73 73 73 73 73 76 74 74 74 75 75 75 75 75 75 74 75 74 74 73 73 74 75
30 20 21 15 27 32 33 27 20 20 20 22 40 44 45 46 48 55 56 58 58 58 58 59 60 61 60 60 60 59 59 62 65 66 64 60 58 58 58 60 61 62 65 66 67 68 69 69 70 69 70 70 70 71 71 71 72 71 71 72 71 71 71 71 72 72 72 72 72 73 73 73 73 73 73 73 73 73 73 74 74 74 75 75 76 76 76 75 75 74 74 74 74 73 72 72 72
28 26 24 23 22 25 31 25 33 25 21 29 30 41 39 49 53 57 57 58 59 60 59 58 60 61 61 61 60 59 59 61 63 66 67 63 60 58 58 59 61 62 64 66 68 69 69 70 70 70 70 71 71 71 71 71 71 71 71 71 71 72 72 71 71 72 72 72 72 72 73 73 73 73 73 73 73 72 73 73 74 74 75 75 75 76 76 75 75 75 74 74 74 73 73 72 73
27 25 26 26 28 23 20 26 22 22 23 27 32 35 40 50 58 58 58 60 61 61 60 60 60 61 61 61 61 60 60 60 62 64 66 67 63 61 60 60 61 62 64 67 68 69 69 70 70 71 71 71 71 71 71 71 72 71 72 71 71 71 71 71 71 72 72 72 72 73 72 72 73 73 73 73 72 72 72 73 74 74 74 75 75 75 75 75 74 74 74 74 73 73 73 73 73
28 25 28 26 25 21 15 18 22 26 23 26 31 32 43 54 59 59 60 61 61 62 62 62 62 61 62 62 61 61 61 61 61 63 66 67 68 64 63 63 63 62 64 66 68 69 69 70 70 71 71 72 71 71 72 72 72 71 71 71 71 71 71 71 71 71 72 71 72 72 73 73 72 72 73 73 73 72 72 72 72 73 74 74 75 75 75 75 74 74 74 74 74 73 73 73 72